Location: Unspecified
(64.9000°N, 0.0000°E)
Time: 02:32:16
(UTC+00:00)

Altair - Pass Details

Date: 22 June 2019
Orbit: 1501 x 1683 km, 47.2° (Epoch: 21 July)

Event Time Altitude Azimuth Distance (km) Brightness Sun altitude
Rises 01:02:24 0° 265° (W) 4,826 9.9 -0.9°
Reaches altitude 10° 01:06:26 10° 251° (WSW) 3,868 9.3 -0.8°
Maximum altitude 01:13:12 21° 208° (SSW) 3,096 8.6 -0.6°
Drops below altitude 10° 01:20:04 10° 164° (SSE) 3,933 9.2 -0.4°
Sets 01:24:14 0° 150° (SSE) 4,929 9.8 -0.2°
